872 
ASUS46 KSEW 191410
RWRWA 

WASHINGTON REGIONAL WEATHER ROUNDUP
NATIONAL WEATHER SERVICE SEATTLE WA
600 AM PST MON NOV 19 2018

NOTE:"FAIR" INDICATES FEW OR NO CLOUDS BELOW 12,000 FEET WITH NO 
SIGNIFICANT WEATHER AND/OR OBSTRUCTIONS TO VISIBILITY.

WAZ507-509-555>559-191500-
SEATTLE, TACOMA, EVERETT, AND VICINITY
  
CITY           SKY/WX    TMP DP  RH WIND       PRES   REMARKS
EVERETT        CLEAR     39  32  76 CALM      30.14S                  
BOEING FIELD   CLOUDY    32  30  92 CALM      30.16S                  
RENTON         CLEAR     33  30  88 SE3       30.15F                  
SEATAC AIRPORT PTCLDY    36  33  89 CALM      30.14S FOG              
JBLM-MCCHORD   NOT AVBL                                               
PUYALLUP       FAIR      28  30 100 CALM      30.14S                  
BREMERTON      CLEAR     27  26  96 CALM      30.14S                  
JBLM-FT LEWIS  NOT AVBL                                               
TACOMA NARROWS CLOUDY    39  39 100 NE3       30.15R FOG              
$$
 
WAZ001-503-506-510-514-515-191500-
NORTH INTERIOR
  
CITY           SKY/WX    TMP DP  RH WIND       PRES   REMARKS
BELLINGHAM     CLEAR     29  25  85 N3        30.16S                  
FRIDAY HARBOR  CLEAR     34  33  96 CALM      30.16S                  
EASTSOUND      CLEAR     41  34  75 CALM      30.16S                  
PORT ANGELES   CLOUDY    39  38  96 SE3       30.15S                  
EDIZ HOOK      CLOUDY    42  39  90 S5        30.16S                  
PORT TOWNSEND  FAIR      25  25 100 CALM      30.15S                  
NAS WHIDBEY    PTCLDY    35  31  85 E3        30.20S                  
ARLINGTON      CLEAR     25  24  96 CALM      30.17S                  
BURLINGTON     CLEAR     32  30  93 N3        30.17R                  
$$
 
WAZ020-022-039-040-504-511-512-191500-
SOUTHWEST INTERIOR
  
CITY           SKY/WX    TMP DP  RH WIND       PRES   REMARKS
SHELTON        CLEAR     28  25  88 CALM      30.13R                  
OLYMPIA        FOG       28  27  96 CALM      30.15S VSB 1/4          
CHEHALIS       NOT AVBL                                               
KELSO          FOG       32  32 100 CALM      30.16S VSB 1/4          
VANCOUVER      CLEAR     30  27  88 CALM      30.15R                  
SCAPPOOSE, OR  CLEAR     31  28  89 CALM      30.14S                  
PORTLAND, OR   CLEAR     32  30  92 CALM      30.16R                  
$$
 
WAZ021-516-517-191500-
WASHINGTON COAST
  
CITY           SKY/WX    TMP DP  RH WIND       PRES   REMARKS
FORKS          CLEAR     30  29  96 CALM      30.11R                  
HOQUIAM        CLEAR     37  35  92 NE8       30.11S                  
ASTORIA, OR    CLEAR     33  31  92 CALM      30.08S                  
$$
 
WAZ019-023-024-040-567>569-191500-
CASCADE MOUNTAINS AND COLUMBIA GORGE
  
CITY           SKY/WX    TMP DP  RH WIND       PRES   REMARKS
STAMPEDE PASS  NOT AVBL                                               
TROUTDALE, OR  CLEAR     43  30  60 E26G36    30.14S                  
HOOD RIVER, OR SUNNY     27  23  86 CALM      30.34S                  
THE DALLES, OR PTCLDY    23  20  88 CALM      30.37R                  
$$

WAZ026-027-041>044-520-521-191500-
EAST SLOPES
  
CITY           SKY/WX    TMP DP  RH WIND       PRES   REMARKS
OMAK           CLEAR     19  18  95 CALM      30.35S                  
WENATCHEE      CLEAR     26  23  88 CALM      30.33S                  
ELLENSBURG     CLEAR     22  18  85 CALM      30.30R                  
YAKIMA         CLEAR     17  14  88 W5        30.33R                  
SUNNYSIDE ARPT SUNNY     20  18  93 CALM      30.34S                  
YAKIMA TC      NOT AVBL                                               
$$

WAZ028-034-035-191500-
COLUMBIA BASIN
  
CITY           SKY/WX    TMP DP  RH WIND       PRES   REMARKS
EPHRATA        CLEAR     26  22  84 N6        30.31S                  
MOSES LAKE     CLEAR     20  18  92 N6        30.33R                  
PASCO          FOG       30  29  96 CALM      30.38R VSB 1/4          
RICHLAND ARPT  FOG       30  30 100 CALM      30.37S VSB 1/4          
HERMISTON, OR  FOG       24  21  88 CALM      30.35R VSB 1/4          
$$

WAZ036>038-191500-
NORTHEAST WASHINGTON
  
CITY           SKY/WX    TMP DP  RH WIND       PRES   REMARKS
SPOKANE GEIGER CLEAR     26  22  84 NE6       30.29S                  
SPOKANE FELTS  CLEAR     27  25  92 CALM      30.32R                  
FAIRCHILD AFB  NOT AVBL                                               
COEURDALENE,ID CLEAR     25  23  92 E8        30.30S                  
DEER PARK      CLEAR     16  13  88 CALM      30.30S                  
$$

WAZ029>033-191500-
SOUTHEAST WASHINGTON
  
CITY           SKY/WX    TMP DP  RH WIND       PRES   REMARKS
PULLMAN        CLEAR     32  25  75 E12       30.27S WCI  23          
LEWISTON, ID   CLEAR     29  25  85 CALM      30.31S                  
WALLA WALLA    HAZE      28  23  81 CALM      30.31R VSB 1/4          
PENDLETON, OR  CLEAR     22  20  92 E5        30.29S FOG              
$$